Year,Month,Day,Hour,Minute,Value (Times are PST for temperature in C)
2015,06,27,00,01,16.10
2015,06,27,00,02,16.10
2015,06,27,00,03,16.10
2015,06,27,00,04,16.10
2015,06,27,00,06,16.10
2015,06,27,00,07,16.10
2015,06,27,00,08,16.10
2015,06,27,00,09,16.10
2015,06,27,00,11,16.10
2015,06,27,00,12,16.10
2015,06,27,00,13,16.10
2015,06,27,00,14,16.10
2015,06,27,00,16,16.10
2015,06,27,00,17,16.10
2015,06,27,00,18,16.20
2015,06,27,00,19,16.20
2015,06,27,00,21,16.20
2015,06,27,00,22,16.20
2015,06,27,00,23,16.20
2015,06,27,00,24,16.20
2015,06,27,00,26,16.20
2015,06,27,00,27,16.20
2015,06,27,00,28,16.20
2015,06,27,00,29,16.20
2015,06,27,00,31,16.20
2015,06,27,00,32,16.20
2015,06,27,00,33,16.20
2015,06,27,00,34,16.20
2015,06,27,00,36,16.10
2015,06,27,00,37,16.10
2015,06,27,00,38,16.10
2015,06,27,00,39,16.10
2015,06,27,00,41,15.90
2015,06,27,00,42,15.80
2015,06,27,00,43,15.80
2015,06,27,00,44,15.70
2015,06,27,00,46,15.60
2015,06,27,00,47,15.50
2015,06,27,00,48,15.40
2015,06,27,00,49,15.40
2015,06,27,00,51,15.30
2015,06,27,00,52,15.30
2015,06,27,00,53,15.20
2015,06,27,00,54,15.20
2015,06,27,00,56,15.10
2015,06,27,00,57,15.10
2015,06,27,00,58,15.00
2015,06,27,00,59,15.00
2015,06,27,01,00,15.00
2015,06,27,01,01,14.90
2015,06,27,01,02,14.90
2015,06,27,01,03,14.90
2015,06,27,01,04,14.90
2015,06,27,01,05,14.90
2015,06,27,01,06,14.80
2015,06,27,01,07,14.80
2015,06,27,01,08,14.80
2015,06,27,01,09,14.80
2015,06,27,01,10,14.80
2015,06,27,01,11,14.80
2015,06,27,01,12,14.80
2015,06,27,01,13,14.80
2015,06,27,01,14,14.80
2015,06,27,01,15,14.80
2015,06,27,01,16,14.80
2015,06,27,01,17,14.80
2015,06,27,01,18,14.80
2015,06,27,01,19,14.80
2015,06,27,01,20,14.80
2015,06,27,01,21,14.80
2015,06,27,01,22,14.80
2015,06,27,01,23,14.80
2015,06,27,01,24,14.80
2015,06,27,01,25,14.80
2015,06,27,01,26,14.80
2015,06,27,01,27,14.80
2015,06,27,01,28,14.80
2015,06,27,01,29,14.80
2015,06,27,01,30,14.80
2015,06,27,01,31,14.80
2015,06,27,01,32,14.80
2015,06,27,01,33,14.80
2015,06,27,01,34,14.80
2015,06,27,01,35,14.80
2015,06,27,01,36,14.80
2015,06,27,01,37,14.80
2015,06,27,01,38,14.80
2015,06,27,01,39,14.80
2015,06,27,01,40,14.80
2015,06,27,01,41,14.80
2015,06,27,01,42,14.80
2015,06,27,01,43,14.80
2015,06,27,01,44,14.80
2015,06,27,01,45,14.80
2015,06,27,01,46,14.80
2015,06,27,01,47,14.80
2015,06,27,01,48,14.80
2015,06,27,01,49,14.80
2015,06,27,01,50,14.80
2015,06,27,01,51,14.80
2015,06,27,01,52,14.80
2015,06,27,01,53,14.80
2015,06,27,01,54,14.80
2015,06,27,01,55,14.80
2015,06,27,01,56,14.80
2015,06,27,01,57,14.80
2015,06,27,01,58,14.80
2015,06,27,01,59,14.80
2015,06,27,02,00,14.80
2015,06,27,02,01,14.80
2015,06,27,02,02,14.90
2015,06,27,02,03,14.90
2015,06,27,02,04,14.90
2015,06,27,02,06,14.90
2015,06,27,02,07,14.90
2015,06,27,02,08,14.90
2015,06,27,02,09,14.90
2015,06,27,02,11,14.80
2015,06,27,02,12,14.80
2015,06,27,02,13,14.80
2015,06,27,02,14,14.80
2015,06,27,02,16,14.80
2015,06,27,02,17,14.80
2015,06,27,02,18,14.80
2015,06,27,02,19,14.80
2015,06,27,02,21,14.80
2015,06,27,02,22,14.80
2015,06,27,02,23,14.80
2015,06,27,02,24,14.70
2015,06,27,02,26,14.70
2015,06,27,02,27,14.60
2015,06,27,02,28,14.60
2015,06,27,02,29,14.60
2015,06,27,02,31,14.50
2015,06,27,02,32,14.50
2015,06,27,02,33,14.50
2015,06,27,02,34,14.40
2015,06,27,02,36,14.40
2015,06,27,02,37,14.30
2015,06,27,02,38,14.30
2015,06,27,02,39,14.30
2015,06,27,02,41,14.30
2015,06,27,02,42,14.20
2015,06,27,02,43,14.20
2015,06,27,02,44,14.20
2015,06,27,02,46,14.20
2015,06,27,02,47,14.20
2015,06,27,02,48,14.20
2015,06,27,02,49,14.20
2015,06,27,02,51,14.20
2015,06,27,02,52,14.20
2015,06,27,02,53,14.20
2015,06,27,02,54,14.20
2015,06,27,02,56,14.20
2015,06,27,02,57,14.20
2015,06,27,02,58,14.20
2015,06,27,02,59,14.20
2015,06,27,03,01,14.20
2015,06,27,03,02,14.10
2015,06,27,03,03,14.10
2015,06,27,03,04,14.10
2015,06,27,03,06,14.10
2015,06,27,03,07,14.10
2015,06,27,03,08,14.10
2015,06,27,03,09,14.10
2015,06,27,03,10,14.10
2015,06,27,03,11,14.10
2015,06,27,03,12,14.10
2015,06,27,03,13,14.10
2015,06,27,03,14,14.10
2015,06,27,03,15,14.10
2015,06,27,03,16,14.10
2015,06,27,03,17,14.10
2015,06,27,03,18,14.10
2015,06,27,03,19,14.10
2015,06,27,03,20,14.10
2015,06,27,03,21,14.10
2015,06,27,03,22,14.10
2015,06,27,03,23,14.10
2015,06,27,03,24,14.10
2015,06,27,03,25,14.10
2015,06,27,03,26,14.10
2015,06,27,03,27,14.10
2015,06,27,03,28,14.10
2015,06,27,03,29,14.10
2015,06,27,03,30,14.10
2015,06,27,03,31,14.00
2015,06,27,03,32,14.00
2015,06,27,03,33,14.00
2015,06,27,03,34,14.00
2015,06,27,03,35,14.00
2015,06,27,03,36,14.00
2015,06,27,03,37,14.00
2015,06,27,03,38,14.00
2015,06,27,03,39,14.00
2015,06,27,03,40,14.00
2015,06,27,03,41,14.00
2015,06,27,03,42,14.00
2015,06,27,03,43,14.00
2015,06,27,03,44,14.00
2015,06,27,03,45,14.00
2015,06,27,03,46,14.00
2015,06,27,03,47,14.00
2015,06,27,03,48,14.00
2015,06,27,03,49,14.00
2015,06,27,03,51,14.00
2015,06,27,03,52,14.00
2015,06,27,03,53,14.00
2015,06,27,03,54,14.10
2015,06,27,03,56,14.10
2015,06,27,03,57,14.10
2015,06,27,03,58,14.10
2015,06,27,03,59,14.10
2015,06,27,04,01,14.10
2015,06,27,04,02,14.10
2015,06,27,04,03,14.10
2015,06,27,04,04,14.10
2015,06,27,04,06,14.10
2015,06,27,04,07,14.10
2015,06,27,04,08,14.10
2015,06,27,04,09,14.20
2015,06,27,04,11,14.20
2015,06,27,04,12,14.10
2015,06,27,04,13,14.10
2015,06,27,04,14,14.10
2015,06,27,04,16,14.10
2015,06,27,04,17,14.10
2015,06,27,04,18,14.10
2015,06,27,04,19,14.10
2015,06,27,04,21,14.10
2015,06,27,04,22,14.10
2015,06,27,04,23,14.10
2015,06,27,04,24,14.10
2015,06,27,04,26,14.10
2015,06,27,04,27,14.10
2015,06,27,04,28,14.10
2015,06,27,04,29,14.10
2015,06,27,04,31,14.10
2015,06,27,04,32,14.00
2015,06,27,04,33,14.00
2015,06,27,04,34,14.00
2015,06,27,04,36,14.00
2015,06,27,04,37,14.00
2015,06,27,04,38,14.00
2015,06,27,04,39,14.00
2015,06,27,04,41,14.00
2015,06,27,04,42,14.00
2015,06,27,04,43,14.00
2015,06,27,04,44,14.00
2015,06,27,04,46,14.00
2015,06,27,04,47,14.00
2015,06,27,04,48,14.00
2015,06,27,04,49,14.00
2015,06,27,04,51,14.00
2015,06,27,04,52,14.00
2015,06,27,04,53,14.00
2015,06,27,04,54,14.00
2015,06,27,04,56,14.00
2015,06,27,04,57,14.00
2015,06,27,04,58,14.00
2015,06,27,04,59,14.00
2015,06,27,05,01,14.00
2015,06,27,05,02,14.00
2015,06,27,05,03,14.00
2015,06,27,05,04,14.00
2015,06,27,05,06,14.00
2015,06,27,05,07,14.00
2015,06,27,05,08,14.00
2015,06,27,05,09,14.00
2015,06,27,05,11,14.00
2015,06,27,05,12,14.00
2015,06,27,05,13,14.00
2015,06,27,05,14,14.00
2015,06,27,05,16,14.00
2015,06,27,05,17,14.00
2015,06,27,05,18,14.00
2015,06,27,05,19,14.00
2015,06,27,05,21,14.00
2015,06,27,05,22,14.00
2015,06,27,05,23,14.00
2015,06,27,05,24,14.00
2015,06,27,05,26,14.00
2015,06,27,05,27,14.00
2015,06,27,05,28,14.00
2015,06,27,05,29,14.00
2015,06,27,05,30,14.00
2015,06,27,05,31,14.00
2015,06,27,05,32,14.00
2015,06,27,05,33,14.00
2015,06,27,05,34,14.00
2015,06,27,05,35,14.00
2015,06,27,05,36,14.00
2015,06,27,05,37,14.00
2015,06,27,05,38,14.00
2015,06,27,05,39,14.00
2015,06,27,05,40,14.00
2015,06,27,05,41,14.10
2015,06,27,05,42,14.10
2015,06,27,05,43,14.10
2015,06,27,05,44,14.10
2015,06,27,05,45,14.10
2015,06,27,05,46,14.10
2015,06,27,05,47,14.10
2015,06,27,05,48,14.10
2015,06,27,05,49,14.10
2015,06,27,05,50,14.10
2015,06,27,05,51,14.10
2015,06,27,05,52,14.10
2015,06,27,05,53,14.20
2015,06,27,05,54,14.20
2015,06,27,05,55,14.20
2015,06,27,05,56,14.20
2015,06,27,05,57,14.20
2015,06,27,05,58,14.20
2015,06,27,05,59,14.20
2015,06,27,06,00,14.20
2015,06,27,06,01,14.20
2015,06,27,06,02,14.20
2015,06,27,06,03,14.20
2015,06,27,06,04,14.20
2015,06,27,06,05,14.20
2015,06,27,06,06,14.20
2015,06,27,06,08,14.20
2015,06,27,06,09,14.20
2015,06,27,06,11,14.30
2015,06,27,06,12,14.30
2015,06,27,06,13,14.30
2015,06,27,06,14,14.30
2015,06,27,06,16,14.40
2015,06,27,06,17,14.40
2015,06,27,06,18,14.50
2015,06,27,06,19,14.50
2015,06,27,06,21,14.60
2015,06,27,06,22,14.60
2015,06,27,06,23,14.60
2015,06,27,06,24,14.70
2015,06,27,06,26,14.70
2015,06,27,06,27,14.70
2015,06,27,06,28,14.80
2015,06,27,06,29,14.80
2015,06,27,06,31,14.80
2015,06,27,06,32,14.80
2015,06,27,06,33,14.80
2015,06,27,06,34,14.80
2015,06,27,06,36,14.80
2015,06,27,06,37,14.80
2015,06,27,06,38,14.80
2015,06,27,06,39,14.80
2015,06,27,06,41,14.70
2015,06,27,06,42,14.70
2015,06,27,06,43,14.70
2015,06,27,06,44,14.70
2015,06,27,06,46,14.70
2015,06,27,06,47,14.70
2015,06,27,06,48,14.70
2015,06,27,06,49,14.70
2015,06,27,06,51,14.70
2015,06,27,06,52,14.80
2015,06,27,06,53,14.80
2015,06,27,06,54,14.80
2015,06,27,06,56,14.80
2015,06,27,06,57,14.80
2015,06,27,06,58,14.80
2015,06,27,06,59,14.80
2015,06,27,07,01,14.80
2015,06,27,07,02,14.90
2015,06,27,07,03,14.90
2015,06,27,07,04,14.90
2015,06,27,07,06,14.90
2015,06,27,07,07,15.00
2015,06,27,07,08,15.00
2015,06,27,07,09,15.00
2015,06,27,07,11,15.10
2015,06,27,07,12,15.10
2015,06,27,07,13,15.10
2015,06,27,07,14,15.20
2015,06,27,07,16,15.20
2015,06,27,07,17,15.20
2015,06,27,07,18,15.30
2015,06,27,07,19,15.30
2015,06,27,07,21,15.30
2015,06,27,07,22,15.30
2015,06,27,07,23,15.30
2015,06,27,07,24,15.30
2015,06,27,07,25,15.40
2015,06,27,07,26,15.40
2015,06,27,07,27,15.40
2015,06,27,07,28,15.40
2015,06,27,07,29,15.50
2015,06,27,07,30,15.50
2015,06,27,07,31,15.50
2015,06,27,07,32,15.60
2015,06,27,07,33,15.60
2015,06,27,07,34,15.70
2015,06,27,07,35,15.70
2015,06,27,07,36,15.70
2015,06,27,07,37,15.80
2015,06,27,07,38,15.80
2015,06,27,07,39,15.80
2015,06,27,07,40,15.90
2015,06,27,07,41,15.90
2015,06,27,07,42,16.10
2015,06,27,07,43,16.10
2015,06,27,07,44,16.10
2015,06,27,07,45,16.10
2015,06,27,07,46,16.10
2015,06,27,07,47,16.20
2015,06,27,07,48,16.20
2015,06,27,07,49,16.20
2015,06,27,07,50,16.30
2015,06,27,07,51,16.30
2015,06,27,07,52,16.30
2015,06,27,07,53,16.40
2015,06,27,07,54,16.40
2015,06,27,07,55,16.40
2015,06,27,07,56,16.40
2015,06,27,07,57,16.40
2015,06,27,07,58,16.40
2015,06,27,07,59,16.60
2015,06,27,08,00,16.60
2015,06,27,08,01,16.60
2015,06,27,08,02,16.60
2015,06,27,08,03,16.60
2015,06,27,08,04,16.60
2015,06,27,08,05,16.70
2015,06,27,08,06,16.70
2015,06,27,08,07,16.70
2015,06,27,08,08,16.70
2015,06,27,08,09,16.70
2015,06,27,08,10,16.70
2015,06,27,08,11,16.70
2015,06,27,08,12,16.80
2015,06,27,08,13,16.80
2015,06,27,08,14,16.80
2015,06,27,08,15,16.90
2015,06,27,08,16,17.00
2015,06,27,08,17,17.00
2015,06,27,08,18,17.10
2015,06,27,08,19,17.20
2015,06,27,08,20,17.20
2015,06,27,08,21,17.30
2015,06,27,08,22,17.30
2015,06,27,08,23,17.30
2015,06,27,08,24,17.40
2015,06,27,08,25,17.50
2015,06,27,08,26,17.50
2015,06,27,08,27,17.60
2015,06,27,08,28,17.70
2015,06,27,08,29,17.80
2015,06,27,08,30,17.90
2015,06,27,08,31,17.90
2015,06,27,08,32,18.10
2015,06,27,08,33,18.20
2015,06,27,08,34,18.30
2015,06,27,08,35,18.40
2015,06,27,08,36,18.60
2015,06,27,08,38,18.80
2015,06,27,08,39,18.90
2015,06,27,08,41,19.10
2015,06,27,08,42,19.20
2015,06,27,08,43,19.20
2015,06,27,08,44,19.30
2015,06,27,08,46,19.40
2015,06,27,08,47,19.50
2015,06,27,08,48,19.70
2015,06,27,08,49,19.80
2015,06,27,08,51,19.90
2015,06,27,08,52,19.90
2015,06,27,08,53,20.10
2015,06,27,08,54,20.20
2015,06,27,08,56,20.30
2015,06,27,08,57,20.40
2015,06,27,08,58,20.50
2015,06,27,08,59,20.70
2015,06,27,09,01,20.90
2015,06,27,09,02,21.00
2015,06,27,09,03,21.10
2015,06,27,09,04,21.10
2015,06,27,09,06,21.20
2015,06,27,09,07,21.30
2015,06,27,09,08,21.30
2015,06,27,09,09,21.30
2015,06,27,09,11,21.30
2015,06,27,09,12,21.30
2015,06,27,09,13,21.30
2015,06,27,09,14,21.20
2015,06,27,09,16,21.00
2015,06,27,09,17,21.00
2015,06,27,09,18,21.00
2015,06,27,09,19,20.90
2015,06,27,09,21,20.80
2015,06,27,09,22,20.70
2015,06,27,09,23,20.60
2015,06,27,09,24,20.50
2015,06,27,09,26,20.20
2015,06,27,09,27,20.10
2015,06,27,09,28,19.90
2015,06,27,09,29,19.80
2015,06,27,09,31,19.60
2015,06,27,09,32,19.40
2015,06,27,09,33,19.40
2015,06,27,09,34,19.30
2015,06,27,09,36,19.10
2015,06,27,09,37,19.10
2015,06,27,09,38,19.10
2015,06,27,09,39,19.10
2015,06,27,09,41,19.20
2015,06,27,09,42,19.20
2015,06,27,09,43,19.30
2015,06,27,09,44,19.40
2015,06,27,09,46,19.40
2015,06,27,09,47,19.50
2015,06,27,09,48,19.50
2015,06,27,09,49,19.50
2015,06,27,09,51,19.40
2015,06,27,09,52,19.30
2015,06,27,09,53,19.20
2015,06,27,09,54,19.10
2015,06,27,09,56,18.90
2015,06,27,09,57,18.80
2015,06,27,09,58,18.70
2015,06,27,09,59,18.50
2015,06,27,10,01,18.30
2015,06,27,10,02,18.20
2015,06,27,10,03,18.10
2015,06,27,10,04,17.80
2015,06,27,10,06,17.50
2015,06,27,10,07,17.40
2015,06,27,10,08,17.30
2015,06,27,10,09,17.20
2015,06,27,10,11,17.10
2015,06,27,10,12,17.10
2015,06,27,10,13,17.10
2015,06,27,10,14,17.20
2015,06,27,10,16,17.20
2015,06,27,10,17,17.20
2015,06,27,10,18,17.20
2015,06,27,10,19,17.20
2015,06,27,10,21,17.30
2015,06,27,10,22,17.30
2015,06,27,10,23,17.40
2015,06,27,10,24,17.50
2015,06,27,10,25,17.60
2015,06,27,10,26,17.80
2015,06,27,10,27,17.90
2015,06,27,10,28,18.10
2015,06,27,10,29,18.20
2015,06,27,10,30,18.30
2015,06,27,10,31,18.60
2015,06,27,10,32,18.70
2015,06,27,10,33,18.90
2015,06,27,10,34,19.10
2015,06,27,10,35,19.20
2015,06,27,10,36,19.40
2015,06,27,10,37,19.70
2015,06,27,10,38,19.90
2015,06,27,10,39,20.20
2015,06,27,10,40,20.30
2015,06,27,10,41,20.60
2015,06,27,10,42,20.90
2015,06,27,10,43,21.10
2015,06,27,10,44,21.30
2015,06,27,10,45,21.60
2015,06,27,10,46,21.70
2015,06,27,10,47,21.90
2015,06,27,10,48,22.10
2015,06,27,10,49,22.20
2015,06,27,10,50,22.40
2015,06,27,10,51,22.50
2015,06,27,10,52,22.70
2015,06,27,10,53,22.80
2015,06,27,10,54,22.90
2015,06,27,10,55,22.90
2015,06,27,10,56,23.10
2015,06,27,10,57,23.20
2015,06,27,10,58,23.20
2015,06,27,10,59,23.30
2015,06,27,11,00,23.30
2015,06,27,11,01,23.30
2015,06,27,11,02,23.30
2015,06,27,11,03,23.30
2015,06,27,11,04,23.30
2015,06,27,11,05,23.30
2015,06,27,11,06,23.30
2015,06,27,11,07,23.30
2015,06,27,11,08,23.30
2015,06,27,11,09,23.30
2015,06,27,11,10,23.30
2015,06,27,11,11,23.30
2015,06,27,11,12,23.20
2015,06,27,11,13,23.20
2015,06,27,11,14,23.10
2015,06,27,11,15,23.10
2015,06,27,11,16,23.10
2015,06,27,11,17,23.10
2015,06,27,11,18,23.10
2015,06,27,11,19,23.10
2015,06,27,11,20,23.10
2015,06,27,11,21,23.10
2015,06,27,11,22,23.10
2015,06,27,11,23,23.10
2015,06,27,11,24,23.10
2015,06,27,11,25,23.20
2015,06,27,11,26,23.30
2015,06,27,11,27,23.30
2015,06,27,11,28,23.30
2015,06,27,11,29,23.30
2015,06,27,11,30,23.40
2015,06,27,11,32,23.60
2015,06,27,11,33,23.60
2015,06,27,11,34,23.70
2015,06,27,11,36,23.70
2015,06,27,11,37,23.70
2015,06,27,11,38,23.70
2015,06,27,11,39,23.70
2015,06,27,11,41,23.80
2015,06,27,11,42,23.80
2015,06,27,11,43,23.80
2015,06,27,11,44,23.80
2015,06,27,11,46,23.80
2015,06,27,11,47,23.70
2015,06,27,11,48,23.70
2015,06,27,11,49,23.70
2015,06,27,11,51,23.60
2015,06,27,11,52,23.60
2015,06,27,11,53,23.40
2015,06,27,11,54,23.40
2015,06,27,11,56,23.60
2015,06,27,11,57,23.60
2015,06,27,11,58,23.60
2015,06,27,11,59,23.70
2015,06,27,12,01,23.70
2015,06,27,12,02,23.70
2015,06,27,12,03,23.80
2015,06,27,12,04,23.90
2015,06,27,12,06,23.90
2015,06,27,12,07,24.10
2015,06,27,12,08,24.10
2015,06,27,12,09,24.10
2015,06,27,12,11,24.10
2015,06,27,12,12,24.10
2015,06,27,12,13,24.10
2015,06,27,12,14,24.10
2015,06,27,12,16,23.90
2015,06,27,12,17,23.90
2015,06,27,12,18,23.90
2015,06,27,12,19,23.90
2015,06,27,12,21,23.90
2015,06,27,12,22,23.90
2015,06,27,12,23,23.90
2015,06,27,12,24,23.90
2015,06,27,12,26,24.10
2015,06,27,12,27,24.10
2015,06,27,12,28,24.10
2015,06,27,12,29,24.10
2015,06,27,12,31,24.10
2015,06,27,12,32,24.10
2015,06,27,12,33,24.10
2015,06,27,12,34,24.20
2015,06,27,12,36,24.20
2015,06,27,12,37,24.30
2015,06,27,12,38,24.30
2015,06,27,12,39,24.30
2015,06,27,12,41,24.30
2015,06,27,12,42,24.30
2015,06,27,12,43,24.30
2015,06,27,12,44,24.30
2015,06,27,12,46,24.40
2015,06,27,12,47,24.40
2015,06,27,12,48,24.50
2015,06,27,12,49,24.50
2015,06,27,12,51,24.60
2015,06,27,12,52,24.50
2015,06,27,12,53,24.50
2015,06,27,12,54,24.50
2015,06,27,12,56,24.40
2015,06,27,12,57,24.40
2015,06,27,12,58,24.40
2015,06,27,12,59,24.40
2015,06,27,13,01,24.30
2015,06,27,13,02,24.30
2015,06,27,13,03,24.30
2015,06,27,13,04,24.20
2015,06,27,13,06,24.20
2015,06,27,13,07,24.10
2015,06,27,13,08,24.10
2015,06,27,13,09,24.10
2015,06,27,13,10,24.10
2015,06,27,13,11,24.10
2015,06,27,13,12,24.10
2015,06,27,13,13,24.10
2015,06,27,13,14,24.10
2015,06,27,13,15,24.10
2015,06,27,13,16,24.10
2015,06,27,13,17,24.10
2015,06,27,13,18,24.10
2015,06,27,13,19,24.10
2015,06,27,13,20,24.10
2015,06,27,13,21,24.10
2015,06,27,13,22,24.10
2015,06,27,13,23,24.10
2015,06,27,13,24,24.10
2015,06,27,13,25,24.10
2015,06,27,13,26,24.10
2015,06,27,13,27,24.10
2015,06,27,13,28,24.10
2015,06,27,13,29,24.10
2015,06,27,13,30,24.10
2015,06,27,13,31,24.10
2015,06,27,13,32,24.10
2015,06,27,13,33,24.10
2015,06,27,13,34,24.10
2015,06,27,13,35,24.10
2015,06,27,13,36,24.10
2015,06,27,13,37,24.10
2015,06,27,13,38,24.20
2015,06,27,13,39,24.20
2015,06,27,13,40,24.30
2015,06,27,13,41,24.30
2015,06,27,13,42,24.40
2015,06,27,13,43,24.50
2015,06,27,13,44,24.50
2015,06,27,13,45,24.60
2015,06,27,13,46,24.70
2015,06,27,13,47,24.80
2015,06,27,13,48,24.90
2015,06,27,13,49,24.90
2015,06,27,13,50,25.00
2015,06,27,13,51,25.10
2015,06,27,13,52,25.10
2015,06,27,13,53,25.20
2015,06,27,13,54,25.20
2015,06,27,13,55,25.40
2015,06,27,13,56,25.40
2015,06,27,13,57,25.50
2015,06,27,13,58,25.60
2015,06,27,13,59,25.70
2015,06,27,14,00,25.80
2015,06,27,14,01,25.90
2015,06,27,14,02,26.00
2015,06,27,14,03,26.10
2015,06,27,14,04,26.20
2015,06,27,14,05,26.30
2015,06,27,14,06,26.40
2015,06,27,14,07,26.60
2015,06,27,14,08,26.70
2015,06,27,14,09,26.80
2015,06,27,14,10,26.90
2015,06,27,14,11,27.10
2015,06,27,14,12,27.20
2015,06,27,14,13,27.30
2015,06,27,14,14,27.30
2015,06,27,14,16,27.60
2015,06,27,14,17,27.60
2015,06,27,14,18,27.70
2015,06,27,14,19,27.80
2015,06,27,14,21,27.80
2015,06,27,14,22,27.80
2015,06,27,14,23,27.80
2015,06,27,14,24,27.70
2015,06,27,14,26,27.40
2015,06,27,14,27,27.30
2015,06,27,14,28,27.30
2015,06,27,14,29,27.30
2015,06,27,14,31,27.30
2015,06,27,14,32,27.20
2015,06,27,14,33,27.20
2015,06,27,14,34,27.20
2015,06,27,14,36,27.30
2015,06,27,14,37,27.30
2015,06,27,14,38,27.30
2015,06,27,14,39,27.30
2015,06,27,14,41,27.40
2015,06,27,14,42,27.60
2015,06,27,14,43,27.60
2015,06,27,14,44,27.60
2015,06,27,14,46,27.40
2015,06,27,14,47,27.30
2015,06,27,14,48,27.30
2015,06,27,14,49,27.20
2015,06,27,14,51,26.90
2015,06,27,14,52,26.90
2015,06,27,14,53,26.90
2015,06,27,14,54,26.80
2015,06,27,14,56,26.80
2015,06,27,14,57,26.80
2015,06,27,14,58,26.80
2015,06,27,14,59,26.80
2015,06,27,15,01,26.90
2015,06,27,15,02,27.10
2015,06,27,15,03,27.20
2015,06,27,15,04,27.30
2015,06,27,15,06,27.40
2015,06,27,15,07,27.60
2015,06,27,15,08,27.60
2015,06,27,15,09,27.70
2015,06,27,15,11,27.80
2015,06,27,15,12,27.90
2015,06,27,15,13,28.00
2015,06,27,15,14,28.00
2015,06,27,15,16,28.00
2015,06,27,15,17,28.00
2015,06,27,15,18,27.90
2015,06,27,15,19,27.80
2015,06,27,15,21,27.70
2015,06,27,15,22,27.60
2015,06,27,15,23,27.40
2015,06,27,15,24,27.30
2015,06,27,15,26,27.30
2015,06,27,15,27,27.30
2015,06,27,15,28,27.30
2015,06,27,15,29,27.30
2015,06,27,15,31,27.30
2015,06,27,15,32,27.40
2015,06,27,15,33,27.60
2015,06,27,15,34,27.70
2015,06,27,15,36,27.80
2015,06,27,15,37,27.90
2015,06,27,15,38,27.90
2015,06,27,15,39,28.00
2015,06,27,15,41,28.00
2015,06,27,15,42,28.00
2015,06,27,15,43,28.00
2015,06,27,15,44,28.00
2015,06,27,15,46,28.10
2015,06,27,15,47,28.20
2015,06,27,15,48,28.20
2015,06,27,15,49,28.30
2015,06,27,15,51,28.40
2015,06,27,15,52,28.60
2015,06,27,15,53,28.70
2015,06,27,15,54,28.70
2015,06,27,15,56,28.80
2015,06,27,15,57,28.90
2015,06,27,15,58,28.90
2015,06,27,15,59,28.90
2015,06,27,16,00,28.80
2015,06,27,16,01,28.80
2015,06,27,16,02,28.80
2015,06,27,16,03,28.70
2015,06,27,16,04,28.70
2015,06,27,16,05,28.70
2015,06,27,16,06,28.70
2015,06,27,16,07,28.70
2015,06,27,16,08,28.70
2015,06,27,16,09,28.70
2015,06,27,16,10,28.70
2015,06,27,16,11,28.70
2015,06,27,16,12,28.70
2015,06,27,16,13,28.70
2015,06,27,16,14,28.70
2015,06,27,16,15,28.80
2015,06,27,16,16,28.80
2015,06,27,16,17,28.80
2015,06,27,16,18,28.90
2015,06,27,16,19,28.90
2015,06,27,16,20,28.90
2015,06,27,16,21,28.90
2015,06,27,16,22,28.90
2015,06,27,16,23,28.90
2015,06,27,16,24,28.90
2015,06,27,16,25,28.90
2015,06,27,16,26,28.90
2015,06,27,16,27,28.90
2015,06,27,16,28,28.90
2015,06,27,16,29,28.90
2015,06,27,16,30,28.80
2015,06,27,16,31,28.80
2015,06,27,16,32,28.80
2015,06,27,16,33,28.70
2015,06,27,16,34,28.70
2015,06,27,16,35,28.70
2015,06,27,16,36,28.80
2015,06,27,16,37,28.80
2015,06,27,16,38,28.80
2015,06,27,16,39,28.80
2015,06,27,16,40,28.90
2015,06,27,16,41,28.90
2015,06,27,16,42,28.90
2015,06,27,16,43,28.90
2015,06,27,16,44,28.80
2015,06,27,16,45,28.80
2015,06,27,16,46,28.80
2015,06,27,16,47,28.80
2015,06,27,16,48,28.70
2015,06,27,16,49,28.70
2015,06,27,16,50,28.70
2015,06,27,16,51,28.70
2015,06,27,16,52,28.70
2015,06,27,16,54,28.60
2015,06,27,16,56,28.40
2015,06,27,16,57,28.30
2015,06,27,16,58,28.20
2015,06,27,16,59,28.20
2015,06,27,17,01,28.00
2015,06,27,17,02,27.90
2015,06,27,17,03,27.70
2015,06,27,17,04,27.60
2015,06,27,17,06,27.10
2015,06,27,17,07,26.80
2015,06,27,17,08,26.60
2015,06,27,17,09,26.40
2015,06,27,17,11,26.00
2015,06,27,17,12,25.80
2015,06,27,17,13,25.60
2015,06,27,17,14,25.40
2015,06,27,17,16,25.20
2015,06,27,17,17,25.10
2015,06,27,17,18,25.00
2015,06,27,17,19,25.00
2015,06,27,17,21,24.90
2015,06,27,17,22,25.00
2015,06,27,17,23,25.00
2015,06,27,17,24,25.00
2015,06,27,17,26,25.20
2015,06,27,17,27,25.20
2015,06,27,17,28,25.30
2015,06,27,17,29,25.40
2015,06,27,17,31,25.60
2015,06,27,17,32,25.70
2015,06,27,17,33,25.80
2015,06,27,17,34,25.80
2015,06,27,17,36,26.00
2015,06,27,17,37,26.00
2015,06,27,17,38,26.10
2015,06,27,17,39,26.10
2015,06,27,17,41,26.20
2015,06,27,17,42,26.20
2015,06,27,17,43,26.30
2015,06,27,17,44,26.40
2015,06,27,17,46,26.60
2015,06,27,17,47,26.60
2015,06,27,17,48,26.60
2015,06,27,17,49,26.70
2015,06,27,17,51,26.80
2015,06,27,17,52,26.90
2015,06,27,17,53,27.10
2015,06,27,17,54,27.10
2015,06,27,17,56,27.20
2015,06,27,17,57,27.20
2015,06,27,17,58,27.20
2015,06,27,17,59,27.20
2015,06,27,18,01,27.30
2015,06,27,18,02,27.30
2015,06,27,18,03,27.30
2015,06,27,18,04,27.30
2015,06,27,18,06,27.10
2015,06,27,18,07,26.80
2015,06,27,18,08,26.60
2015,06,27,18,09,26.40
2015,06,27,18,11,25.90
2015,06,27,18,12,25.70
2015,06,27,18,13,25.60
2015,06,27,18,14,25.40
2015,06,27,18,16,25.10
2015,06,27,18,17,24.90
2015,06,27,18,18,24.70
2015,06,27,18,19,24.60
2015,06,27,18,21,24.30
2015,06,27,18,22,24.20
2015,06,27,18,23,24.10
2015,06,27,18,24,24.10
2015,06,27,18,25,24.10
2015,06,27,18,26,24.10
2015,06,27,18,27,24.10
2015,06,27,18,28,24.10
2015,06,27,18,29,24.10
2015,06,27,18,30,24.10
2015,06,27,18,31,24.10
2015,06,27,18,32,24.10
2015,06,27,18,33,24.10
2015,06,27,18,34,24.10
2015,06,27,18,35,23.90
2015,06,27,18,36,23.80
2015,06,27,18,37,23.70
2015,06,27,18,38,23.70
2015,06,27,18,39,23.40
2015,06,27,18,40,23.30
2015,06,27,18,41,23.30
2015,06,27,18,42,23.30
2015,06,27,18,43,23.30
2015,06,27,18,44,23.20
2015,06,27,18,45,23.20
2015,06,27,18,46,23.20
2015,06,27,18,47,23.10
2015,06,27,18,48,23.20
2015,06,27,18,49,23.20
2015,06,27,18,50,23.20
2015,06,27,18,51,23.20
2015,06,27,18,52,23.30
2015,06,27,18,53,23.30
2015,06,27,18,54,23.30
2015,06,27,18,55,23.40
2015,06,27,18,56,23.60
2015,06,27,18,57,23.70
2015,06,27,18,58,23.70
2015,06,27,18,59,23.80
2015,06,27,19,00,23.90
2015,06,27,19,01,24.10
2015,06,27,19,02,24.20
2015,06,27,19,03,24.30
2015,06,27,19,04,24.40
2015,06,27,19,05,24.40
2015,06,27,19,06,24.50
2015,06,27,19,07,24.50
2015,06,27,19,08,24.60
2015,06,27,19,09,24.60
2015,06,27,19,10,24.60
2015,06,27,19,11,24.60
2015,06,27,19,12,24.60
2015,06,27,19,13,24.60
2015,06,27,19,14,24.60
2015,06,27,19,15,24.60
2015,06,27,19,16,24.60
2015,06,27,19,17,24.50
2015,06,27,19,18,24.50
2015,06,27,19,19,24.50
2015,06,27,19,20,24.50
2015,06,27,19,21,24.40
2015,06,27,19,22,24.40
2015,06,27,19,23,24.40
2015,06,27,19,24,24.40
2015,06,27,19,25,24.30
2015,06,27,19,26,24.30
2015,06,27,19,27,24.30
2015,06,27,19,28,24.30
2015,06,27,19,29,24.30
2015,06,27,19,30,24.30
2015,06,27,19,31,24.30
2015,06,27,19,33,24.30
2015,06,27,19,34,24.30
2015,06,27,19,36,24.30
2015,06,27,19,37,24.30
2015,06,27,19,38,24.30
2015,06,27,19,39,24.30
2015,06,27,19,41,24.30
2015,06,27,19,42,24.30
2015,06,27,19,43,24.30
2015,06,27,19,44,24.20
2015,06,27,19,46,24.10